Time,TemperatureF,DewpointF,PressureIn,WindDirection,WindDirectionDegrees,WindSpeedMPH,WindSpeedGustMPH,Humidity,HourlyPrecipIn,Conditions,Clouds,dailyrainin,SoftwareType,DateUTC
2013-03-05 00:02:00,32.4,30.8,29.76,North,-999,0.0,0.0,94,0.00,,,0.00,pywws,2013-03-05 00:02:00,
2013-03-05 00:07:00,32.5,31.3,29.76,North,-999,0.0,0.0,95,0.00,,,0.00,pywws,2013-03-05 00:07:00,
2013-03-05 00:12:00,32.4,31.1,29.76,North,-999,0.0,0.0,95,0.00,,,0.00,pywws,2013-03-05 00:12:00,
2013-03-05 00:17:00,32.4,31.1,29.76,North,-999,0.0,0.0,95,0.00,,,0.00,pywws,2013-03-05 00:17:00,
2013-03-05 00:22:00,32.4,31.1,29.76,North,-999,0.0,0.0,95,0.00,,,0.00,pywws,2013-03-05 00:22:00,
2013-03-05 00:27:00,32.2,30.9,29.76,North,-999,0.0,0.0,95,0.00,,,0.00,pywws,2013-03-05 00:27:00,
2013-03-05 00:32:00,32.2,30.9,29.76,North,-999,0.0,0.7,95,0.00,,,0.00,pywws,2013-03-05 00:32:00,
2013-03-05 00:37:00,32.2,30.9,29.76,North,-999,0.0,0.0,95,0.00,,,0.00,pywws,2013-03-05 00:37:00,
2013-03-05 00:42:00,32.2,31.2,29.76,NW,315,0.7,1.6,96,0.00,,,0.00,pywws,2013-03-05 00:42:00,
2013-03-05 00:47:00,32.4,31.6,29.76,North,-999,0.0,0.7,97,0.00,,,0.00,pywws,2013-03-05 00:47:00,
2013-03-05 00:52:00,32.2,31.2,29.75,North,-999,0.0,0.0,96,0.00,,,0.00,pywws,2013-03-05 00:52:00,
2013-03-05 01:02:00,31.8,30.8,29.75,North,-999,0.0,0.0,96,0.00,,,0.00,pywws,2013-03-05 01:02:00,
2013-03-05 01:07:00,30.6,29.6,29.75,North,-999,0.0,0.7,96,0.00,,,0.00,pywws,2013-03-05 01:07:00,
2013-03-05 01:12:00,30.2,28.9,29.75,North,-999,0.0,0.0,95,0.00,,,0.00,pywws,2013-03-05 01:12:00,
2013-03-05 01:17:00,29.8,28.8,29.75,North,-999,0.0,0.0,96,0.00,,,0.00,pywws,2013-03-05 01:17:00,
2013-03-05 01:22:00,29.3,28.0,29.75,North,-999,0.0,0.0,95,0.00,,,0.00,pywws,2013-03-05 01:22:00,
2013-03-05 01:27:00,29.1,28.1,29.75,North,-999,0.0,0.0,96,0.00,,,0.00,pywws,2013-03-05 01:27:00,
2013-03-05 01:32:00,28.9,27.9,29.75,North,-999,0.0,0.0,96,0.00,,,0.00,pywws,2013-03-05 01:32:00,
2013-03-05 01:37:00,28.9,27.9,29.75,North,-999,0.0,0.0,96,0.00,,,0.00,pywws,2013-03-05 01:37:00,
2013-03-05 01:42:00,28.8,27.8,29.74,North,-999,0.0,0.0,96,0.00,,,0.00,pywws,2013-03-05 01:42:00,
2013-03-05 01:47:00,28.6,27.6,29.74,North,-999,0.0,0.0,96,0.00,,,0.00,pywws,2013-03-05 01:47:00,
2013-03-05 01:52:00,28.8,27.8,29.74,North,-999,0.0,0.0,96,0.00,,,0.00,pywws,2013-03-05 01:52:00,
2013-03-05 02:02:00,28.8,27.8,29.74,North,-999,0.0,0.0,96,0.00,,,0.00,pywws,2013-03-05 02:02:00,
2013-03-05 02:07:00,28.2,27.2,29.74,North,-999,0.0,0.0,96,0.00,,,0.00,pywws,2013-03-05 02:07:00,
2013-03-05 02:12:00,27.9,26.9,29.74,North,-999,0.0,0.0,96,0.00,,,0.00,pywws,2013-03-05 02:12:00,
2013-03-05 02:17:00,28.0,27.3,29.74,North,-999,0.0,0.0,97,0.00,,,0.00,pywws,2013-03-05 02:17:00,
2013-03-05 02:22:00,28.2,27.5,29.74,North,-999,0.0,0.0,97,0.00,,,0.00,pywws,2013-03-05 02:22:00,
2013-03-05 02:27:00,28.2,27.5,29.74,North,-999,0.0,0.0,97,0.00,,,0.00,pywws,2013-03-05 02:27:00,
2013-03-05 02:32:00,28.0,27.3,29.74,North,-999,0.0,0.0,97,0.00,,,0.00,pywws,2013-03-05 02:32:00,
2013-03-05 02:37:00,28.0,27.5,29.74,North,-999,0.0,0.0,98,0.00,,,0.00,pywws,2013-03-05 02:37:00,
2013-03-05 02:42:00,28.4,27.9,29.73,North,-999,0.0,0.0,98,0.00,,,0.00,pywws,2013-03-05 02:42:00,
2013-03-05 02:47:00,28.4,27.9,29.73,North,-999,0.0,0.0,98,0.00,,,0.00,pywws,2013-03-05 02:47:00,
2013-03-05 02:52:00,28.4,27.9,29.74,North,-999,0.0,0.0,98,0.00,,,0.00,pywws,2013-03-05 02:52:00,
2013-03-05 03:02:00,28.2,27.7,29.73,North,-999,0.0,0.0,98,0.00,,,0.00,pywws,2013-03-05 03:02:00,
2013-03-05 03:07:00,28.2,27.7,29.72,North,-999,0.0,0.0,98,0.00,,,0.00,pywws,2013-03-05 03:07:00,
2013-03-05 03:12:00,28.4,28.2,29.73,North,-999,0.0,0.0,99,0.00,,,0.00,pywws,2013-03-05 03:12:00,
2013-03-05 03:17:00,28.4,28.2,29.73,North,-999,0.0,0.0,99,0.00,,,0.00,pywws,2013-03-05 03:17:00,
2013-03-05 03:22:00,28.6,28.3,29.73,North,-999,0.0,0.0,99,0.00,,,0.00,pywws,2013-03-05 03:22:00,
2013-03-05 03:27:00,28.6,28.3,29.72,North,-999,0.0,0.0,99,0.00,,,0.00,pywws,2013-03-05 03:27:00,
2013-03-05 03:32:00,28.6,28.3,29.73,North,-999,0.0,0.0,99,0.00,,,0.00,pywws,2013-03-05 03:32:00,
2013-03-05 03:37:00,28.6,28.3,29.72,North,-999,0.0,0.0,99,0.00,,,0.00,pywws,2013-03-05 03:37:00,
2013-03-05 03:42:00,28.6,28.3,29.73,North,-999,0.0,0.0,99,0.00,,,0.00,pywws,2013-03-05 03:42:00,
2013-03-05 03:47:00,28.6,28.3,29.72,North,-999,0.0,0.0,99,0.00,,,0.00,pywws,2013-03-05 03:47:00,
2013-03-05 03:52:00,28.9,28.7,29.72,North,-999,0.0,0.0,99,0.00,,,0.00,pywws,2013-03-05 03:52:00,
2013-03-05 04:02:00,28.9,28.7,29.73,North,-999,0.0,0.0,99,0.00,,,0.00,pywws,2013-03-05 04:02:00,
2013-03-05 04:07:00,29.1,28.9,29.72,North,-999,0.0,0.0,99,0.00,,,0.00,pywws,2013-03-05 04:07:00,
2013-03-05 04:12:00,29.1,28.9,29.72,North,-999,0.0,0.0,99,0.00,,,0.00,pywws,2013-03-05 04:12:00,
2013-03-05 04:17:00,29.1,28.9,29.72,North,-999,0.0,0.0,99,0.00,,,0.00,pywws,2013-03-05 04:17:00,
2013-03-05 04:22:00,28.9,28.7,29.72,North,-999,0.0,0.0,99,0.00,,,0.00,pywws,2013-03-05 04:22:00,
2013-03-05 04:27:00,28.9,28.7,29.72,North,-999,0.0,0.0,99,0.00,,,0.00,pywws,2013-03-05 04:27:00,
2013-03-05 04:32:00,28.9,28.7,29.72,North,-999,0.0,0.0,99,0.00,,,0.00,pywws,2013-03-05 04:32:00,
2013-03-05 04:37:00,29.1,28.9,29.72,North,-999,0.0,0.0,99,0.00,,,0.00,pywws,2013-03-05 04:37:00,
2013-03-05 04:42:00,29.5,29.2,29.72,North,-999,0.0,0.0,99,0.00,,,0.00,pywws,2013-03-05 04:42:00,
2013-03-05 04:47:00,29.7,29.4,29.72,North,-999,0.0,0.0,99,0.00,,,0.00,pywws,2013-03-05 04:47:00,
2013-03-05 04:52:00,30.0,29.8,29.72,North,-999,0.0,0.0,99,0.00,,,0.00,pywws,2013-03-05 04:52:00,
2013-03-05 05:02:00,30.0,29.8,29.72,North,-999,0.0,0.0,99,0.00,,,0.00,pywws,2013-03-05 05:02:00,
2013-03-05 05:07:00,29.5,29.2,29.72,North,-999,0.0,0.0,99,0.00,,,0.00,pywws,2013-03-05 05:07:00,
2013-03-05 05:12:00,29.7,29.4,29.72,North,-999,0.0,0.0,99,0.00,,,0.00,pywws,2013-03-05 05:12:00,
2013-03-05 05:17:00,30.0,29.8,29.72,North,-999,0.0,0.0,99,0.00,,,0.00,pywws,2013-03-05 05:17:00,
2013-03-05 05:22:00,30.0,29.8,29.72,North,-999,0.0,0.0,99,0.00,,,0.00,pywws,2013-03-05 05:22:00,
2013-03-05 05:27:00,29.8,29.6,29.72,North,-999,0.0,0.0,99,0.00,,,0.00,pywws,2013-03-05 05:27:00,
2013-03-05 05:32:00,29.3,29.1,29.72,North,-999,0.0,0.0,99,0.00,,,0.00,pywws,2013-03-05 05:32:00,
2013-03-05 05:37:00,28.9,28.7,29.73,North,-999,0.0,0.0,99,0.00,,,0.00,pywws,2013-03-05 05:37:00,
2013-03-05 05:42:00,28.8,28.5,29.72,North,-999,0.0,0.0,99,0.00,,,0.00,pywws,2013-03-05 05:42:00,
2013-03-05 05:47:00,28.8,28.5,29.73,North,-999,0.0,0.0,99,0.00,,,0.00,pywws,2013-03-05 05:47:00,
2013-03-05 05:52:00,28.8,28.5,29.72,North,-999,0.0,0.0,99,0.00,,,0.00,pywws,2013-03-05 05:52:00,
2013-03-05 06:02:00,28.6,28.3,29.72,North,-999,0.0,0.0,99,0.00,,,0.00,pywws,2013-03-05 06:02:00,
2013-03-05 06:07:00,28.2,28.0,29.72,North,-999,0.0,0.0,99,0.00,,,0.00,pywws,2013-03-05 06:07:00,
2013-03-05 06:12:00,27.9,27.6,29.72,North,-999,0.0,0.0,99,0.00,,,0.00,pywws,2013-03-05 06:12:00,
2013-03-05 06:17:00,27.7,27.4,29.72,North,-999,0.0,0.0,99,0.00,,,0.00,pywws,2013-03-05 06:17:00,
2013-03-05 06:22:00,28.0,27.8,29.72,North,-999,0.0,0.0,99,0.00,,,0.00,pywws,2013-03-05 06:22:00,
2013-03-05 06:27:00,28.6,28.3,29.72,North,-999,0.0,0.0,99,0.00,,,0.00,pywws,2013-03-05 06:27:00,
2013-03-05 06:32:00,29.1,28.9,29.72,North,-999,0.0,0.7,99,0.00,,,0.00,pywws,2013-03-05 06:32:00,
2013-03-05 06:37:00,29.3,29.1,29.72,NW,315,0.7,1.6,99,0.00,,,0.00,pywws,2013-03-05 06:37:00,
2013-03-05 06:42:00,30.0,29.8,29.72,North,-999,0.0,1.6,99,0.00,,,0.00,pywws,2013-03-05 06:42:00,
2013-03-05 06:47:00,30.4,30.1,29.72,North,-999,0.0,0.0,99,0.00,,,0.00,pywws,2013-03-05 06:47:00,
2013-03-05 06:52:00,30.2,30.0,29.72,North,-999,0.0,0.7,99,0.00,,,0.00,pywws,2013-03-05 06:52:00,
2013-03-05 07:02:00,29.8,29.6,29.72,North,-999,0.0,0.7,99,0.00,,,0.00,pywws,2013-03-05 07:02:00,
2013-03-05 07:07:00,29.7,29.4,29.72,North,-999,0.0,0.7,99,0.00,,,0.00,pywws,2013-03-05 07:07:00,
2013-03-05 07:12:00,29.5,29.2,29.72,North,-999,0.0,0.0,99,0.00,,,0.00,pywws,2013-03-05 07:12:00,
2013-03-05 07:17:00,29.3,29.1,29.72,North,-999,0.0,0.0,99,0.00,,,0.00,pywws,2013-03-05 07:17:00,
2013-03-05 07:22:00,29.1,28.9,29.72,North,-999,0.0,0.0,99,0.00,,,0.00,pywws,2013-03-05 07:22:00,
2013-03-05 07:27:00,29.1,28.9,29.72,North,-999,0.0,0.0,99,0.00,,,0.00,pywws,2013-03-05 07:27:00,
2013-03-05 07:32:00,29.5,29.2,29.72,North,-999,0.0,1.6,99,0.00,,,0.00,pywws,2013-03-05 07:32:00,
2013-03-05 07:37:00,29.8,29.6,29.72,North,-999,0.0,0.0,99,0.00,,,0.00,pywws,2013-03-05 07:37:00,
2013-03-05 07:42:00,29.8,29.6,29.72,North,-999,0.0,0.0,99,0.00,,,0.00,pywws,2013-03-05 07:42:00,
2013-03-05 07:47:00,29.7,29.4,29.72,North,-999,0.0,0.0,99,0.00,,,0.00,pywws,2013-03-05 07:47:00,
2013-03-05 07:52:00,29.5,29.2,29.72,North,-999,0.0,0.0,99,0.00,,,0.00,pywws,2013-03-05 07:52:00,
2013-03-05 08:02:00,29.5,29.2,29.72,North,-999,0.0,0.7,99,0.00,,,0.00,pywws,2013-03-05 08:02:00,
2013-03-05 08:07:00,30.0,29.8,29.72,North,-999,0.0,0.0,99,0.00,,,0.00,pywws,2013-03-05 08:07:00,
2013-03-05 08:12:00,30.4,30.1,29.72,North,-999,0.0,0.0,99,0.00,,,0.00,pywws,2013-03-05 08:12:00,
2013-03-05 08:17:00,30.7,30.5,29.72,North,-999,0.0,0.0,99,0.00,,,0.00,pywws,2013-03-05 08:17:00,
2013-03-05 08:22:00,31.5,31.2,29.72,North,-999,0.0,0.0,99,0.00,,,0.00,pywws,2013-03-05 08:22:00,
2013-03-05 08:27:00,32.0,31.8,29.72,North,-999,0.0,0.7,99,0.00,,,0.00,pywws,2013-03-05 08:27:00,
2013-03-05 08:32:00,32.4,32.1,29.72,North,-999,0.0,0.0,99,0.00,,,0.00,pywws,2013-03-05 08:32:00,
2013-03-05 08:37:00,33.1,32.8,29.72,North,-999,0.0,0.0,99,0.00,,,0.00,pywws,2013-03-05 08:37:00,
2013-03-05 08:42:00,34.0,33.7,29.72,North,-999,0.0,0.0,99,0.00,,,0.00,pywws,2013-03-05 08:42:00,
2013-03-05 08:47:00,34.5,34.3,29.72,North,-999,0.0,0.7,99,0.00,,,0.00,pywws,2013-03-05 08:47:00,
2013-03-05 08:52:00,35.1,34.8,29.71,North,-999,0.0,1.6,99,0.00,,,0.00,pywws,2013-03-05 08:52:00,
2013-03-05 09:02:00,35.8,35.5,29.72,North,-999,0.0,0.7,99,0.00,,,0.00,pywws,2013-03-05 09:02:00,
2013-03-05 09:07:00,39.0,38.8,29.72,North,-999,0.0,0.0,99,0.00,,,0.00,pywws,2013-03-05 09:07:00,
2013-03-05 09:12:00,41.0,40.7,29.72,North,-999,0.0,0.0,99,0.00,,,0.00,pywws,2013-03-05 09:12:00,
2013-03-05 09:17:00,42.8,42.5,29.71,North,-999,0.0,0.7,99,0.00,,,0.00,pywws,2013-03-05 09:17:00,
2013-03-05 09:22:00,43.7,43.4,29.71,North,-999,0.0,0.7,99,0.00,,,0.00,pywws,2013-03-05 09:22:00,
2013-03-05 09:27:00,44.8,44.2,29.72,North,-999,0.0,0.7,98,0.00,,,0.00,pywws,2013-03-05 09:27:00,
2013-03-05 09:32:00,45.7,44.1,29.71,North,-999,0.0,1.6,94,0.00,,,0.00,pywws,2013-03-05 09:32:00,
2013-03-05 09:37:00,46.2,43.2,29.71,North,-999,0.0,0.0,89,0.00,,,0.00,pywws,2013-03-05 09:37:00,
2013-03-05 09:42:00,47.8,43.9,29.72,North,-999,0.0,0.0,86,0.00,,,0.00,pywws,2013-03-05 09:42:00,
2013-03-05 09:47:00,48.7,43.5,29.71,North,-999,0.0,0.0,82,0.00,,,0.00,pywws,2013-03-05 09:47:00,
2013-03-05 09:52:00,50.2,44.3,29.71,North,-999,0.0,0.7,80,0.00,,,0.00,pywws,2013-03-05 09:52:00,
2013-03-05 10:02:00,50.7,43.8,29.71,North,-999,0.0,0.7,77,0.00,,,0.00,pywws,2013-03-05 10:02:00,
2013-03-05 10:07:00,50.5,41.1,29.71,North,-999,0.0,1.6,70,0.00,,,0.00,pywws,2013-03-05 10:07:00,
2013-03-05 10:12:00,50.4,39.8,29.71,North,-999,0.0,0.7,67,0.00,,,0.00,pywws,2013-03-05 10:12:00,
2013-03-05 10:17:00,50.0,39.1,29.71,SE,135,0.7,1.6,66,0.00,,,0.00,pywws,2013-03-05 10:17:00,
2013-03-05 10:22:00,50.0,38.7,29.71,South,180,0.7,1.6,65,0.00,,,0.00,pywws,2013-03-05 10:22:00,
2013-03-05 10:27:00,50.4,40.2,29.71,North,-999,0.0,0.7,68,0.00,,,0.00,pywws,2013-03-05 10:27:00,
2013-03-05 10:32:00,50.9,40.3,29.71,North,-999,0.0,1.6,67,0.00,,,0.00,pywws,2013-03-05 10:32:00,
2013-03-05 10:37:00,51.3,40.7,29.71,North,-999,0.0,1.6,67,0.00,,,0.00,pywws,2013-03-05 10:37:00,
2013-03-05 10:42:00,51.8,40.8,29.71,North,-999,0.0,1.6,66,0.00,,,0.00,pywws,2013-03-05 10:42:00,
2013-03-05 10:47:00,50.9,39.2,29.71,North,-999,0.0,1.6,64,0.00,,,0.00,pywws,2013-03-05 10:47:00,
2013-03-05 10:52:00,51.1,39.3,29.71,North,-999,0.0,0.7,64,0.00,,,0.00,pywws,2013-03-05 10:52:00,
2013-03-05 11:02:00,51.4,40.1,29.71,North,-999,0.0,2.2,65,0.00,,,0.00,pywws,2013-03-05 11:02:00,
2013-03-05 11:07:00,48.7,37.5,29.71,East,90,1.6,3.8,65,0.00,,,0.00,pywws,2013-03-05 11:07:00,
2013-03-05 11:12:00,48.7,38.7,29.71,North,-999,0.0,2.2,68,0.00,,,0.00,pywws,2013-03-05 11:12:00,
2013-03-05 11:17:00,50.4,39.8,29.71,SSE,158,0.7,2.2,67,0.00,,,0.00,pywws,2013-03-05 11:17:00,
2013-03-05 11:22:00,51.1,38.9,29.70,East,90,0.7,4.5,63,0.00,,,0.00,pywws,2013-03-05 11:22:00,
2013-03-05 11:27:00,50.2,38.5,29.71,SE,135,0.7,2.2,64,0.00,,,0.00,pywws,2013-03-05 11:27:00,
2013-03-05 11:32:00,50.2,38.9,29.71,SSW,202,0.7,2.2,65,0.00,,,0.00,pywws,2013-03-05 11:32:00,
2013-03-05 11:37:00,50.5,39.2,29.70,West,270,0.7,2.2,65,0.00,,,0.00,pywws,2013-03-05 11:37:00,
2013-03-05 11:42:00,51.1,38.5,29.70,West,270,0.7,3.1,62,0.00,,,0.00,pywws,2013-03-05 11:42:00,
2013-03-05 11:47:00,51.8,40.0,29.70,North,-999,0.0,1.6,64,0.00,,,0.00,pywws,2013-03-05 11:47:00,
2013-03-05 11:52:00,52.9,40.2,29.70,North,-999,0.0,1.6,62,0.00,,,0.00,pywws,2013-03-05 11:52:00,
2013-03-05 12:02:00,52.9,39.4,29.70,West,270,0.7,2.2,60,0.00,,,0.00,pywws,2013-03-05 12:02:00,
2013-03-05 12:07:00,50.5,37.6,29.70,East,90,0.7,3.8,61,0.00,,,0.00,pywws,2013-03-05 12:07:00,
2013-03-05 12:12:00,49.6,38.4,29.69,NW,315,0.7,2.2,65,0.00,,,0.00,pywws,2013-03-05 12:12:00,
2013-03-05 12:17:00,50.0,39.1,29.69,ENE,68,0.7,3.1,66,0.00,,,0.00,pywws,2013-03-05 12:17:00,
2013-03-05 12:22:00,50.0,39.5,29.69,North,-999,0.0,2.2,67,0.00,,,0.00,pywws,2013-03-05 12:22:00,
2013-03-05 12:27:00,50.5,38.8,29.69,East,90,1.6,3.1,64,0.00,,,0.00,pywws,2013-03-05 12:27:00,
2013-03-05 12:32:00,50.9,39.6,29.69,North,-999,0.0,2.2,65,0.00,,,0.00,pywws,2013-03-05 12:32:00,
2013-03-05 12:37:00,50.5,38.0,29.69,East,90,3.1,3.8,62,0.00,,,0.00,pywws,2013-03-05 12:37:00,
2013-03-05 12:42:00,48.7,37.1,29.68,East,90,0.7,2.2,64,0.00,,,0.00,pywws,2013-03-05 12:42:00,
2013-03-05 12:47:00,48.2,37.0,29.69,NW,315,0.7,2.2,65,0.00,,,0.00,pywws,2013-03-05 12:47:00,
2013-03-05 12:52:00,49.1,37.5,29.69,NNW,338,1.6,4.5,64,0.00,,,0.00,pywws,2013-03-05 12:52:00,
2013-03-05 13:02:00,50.0,38.3,29.69,SE,135,1.6,3.8,64,0.00,,,0.00,pywws,2013-03-05 13:02:00,
2013-03-05 13:07:00,51.1,38.5,29.69,SW,225,1.6,4.5,62,0.00,,,0.00,pywws,2013-03-05 13:07:00,
2013-03-05 13:12:00,50.7,37.8,29.69,NE,45,0.7,2.2,61,0.00,,,0.00,pywws,2013-03-05 13:12:00,
2013-03-05 13:17:00,50.9,38.4,29.69,North,-999,0.0,1.6,62,0.00,,,0.00,pywws,2013-03-05 13:17:00,
2013-03-05 13:22:00,51.3,38.3,29.68,NE,45,0.7,2.2,61,0.00,,,0.00,pywws,2013-03-05 13:22:00,
2013-03-05 13:27:00,51.1,37.3,29.68,East,90,0.7,3.1,59,0.00,,,0.00,pywws,2013-03-05 13:27:00,
2013-03-05 13:32:00,50.5,36.3,29.68,NNE,22,1.6,3.8,58,0.00,,,0.00,pywws,2013-03-05 13:32:00,
2013-03-05 13:37:00,51.3,37.0,29.68,North,-999,0.0,1.6,58,0.00,,,0.00,pywws,2013-03-05 13:37:00,
2013-03-05 13:42:00,52.0,36.8,29.68,SW,225,0.7,3.1,56,0.00,,,0.00,pywws,2013-03-05 13:42:00,
2013-03-05 13:47:00,52.3,36.7,29.68,North,-999,0.0,1.6,55,0.00,,,0.00,pywws,2013-03-05 13:47:00,
2013-03-05 13:52:00,52.7,36.5,29.69,North,-999,0.0,1.6,54,0.00,,,0.00,pywws,2013-03-05 13:52:00,
2013-03-05 14:02:00,52.2,35.1,29.69,NE,45,0.7,4.5,52,0.00,,,0.00,pywws,2013-03-05 14:02:00,
2013-03-05 14:07:00,51.3,34.7,29.68,East,90,1.6,3.1,53,0.00,,,0.00,pywws,2013-03-05 14:07:00,
2013-03-05 14:12:00,51.8,35.7,29.68,East,90,0.7,2.2,54,0.00,,,0.00,pywws,2013-03-05 14:12:00,
2013-03-05 14:17:00,51.1,34.1,29.68,East,90,0.7,2.2,52,0.00,,,0.00,pywws,2013-03-05 14:17:00,
2013-03-05 14:22:00,50.9,33.9,29.68,SE,135,0.7,1.6,52,0.00,,,0.00,pywws,2013-03-05 14:22:00,
2013-03-05 14:27:00,51.3,35.2,29.68,North,-999,0.0,2.2,54,0.00,,,0.00,pywws,2013-03-05 14:27:00,
2013-03-05 14:32:00,52.0,34.4,29.67,SE,135,0.7,3.1,51,0.00,,,0.00,pywws,2013-03-05 14:32:00,
2013-03-05 14:37:00,51.8,34.3,29.67,SE,135,1.6,3.8,51,0.00,,,0.00,pywws,2013-03-05 14:37:00,
2013-03-05 14:42:00,51.8,34.3,29.67,SE,135,0.7,2.2,51,0.00,,,0.00,pywws,2013-03-05 14:42:00,
2013-03-05 14:47:00,51.4,33.9,29.67,East,90,0.7,3.1,51,0.00,,,0.00,pywws,2013-03-05 14:47:00,
2013-03-05 14:52:00,51.3,33.8,29.67,East,90,1.6,2.2,51,0.00,,,0.00,pywws,2013-03-05 14:52:00,
2013-03-05 15:02:00,51.4,33.4,29.67,South,180,2.2,3.8,50,0.00,,,0.00,pywws,2013-03-05 15:02:00,
2013-03-05 15:07:00,50.7,33.7,29.67,North,-999,0.0,1.6,52,0.00,,,0.00,pywws,2013-03-05 15:07:00,
2013-03-05 15:12:00,50.2,34.2,29.67,North,-999,0.0,2.2,54,0.00,,,0.00,pywws,2013-03-05 15:12:00,
2013-03-05 15:17:00,49.6,34.1,29.66,SW,225,0.7,2.2,55,0.00,,,0.00,pywws,2013-03-05 15:17:00,
2013-03-05 15:22:00,49.3,34.3,29.67,North,-999,0.0,1.6,56,0.00,,,0.00,pywws,2013-03-05 15:22:00,
2013-03-05 15:27:00,48.9,33.5,29.67,SE,135,1.6,3.8,55,0.00,,,0.00,pywws,2013-03-05 15:27:00,
2013-03-05 15:32:00,48.4,33.9,29.67,North,-999,0.0,1.6,57,0.00,,,0.00,pywws,2013-03-05 15:32:00,
2013-03-05 15:37:00,48.6,34.5,29.67,East,90,0.7,2.2,58,0.00,,,0.00,pywws,2013-03-05 15:37:00,
2013-03-05 15:42:00,48.4,34.3,29.67,North,-999,0.0,1.6,58,0.00,,,0.00,pywws,2013-03-05 15:42:00,
2013-03-05 15:47:00,48.0,34.0,29.67,SE,135,0.7,2.2,58,0.00,,,0.00,pywws,2013-03-05 15:47:00,
2013-03-05 15:52:00,47.8,34.2,29.67,North,-999,0.0,1.6,59,0.00,,,0.00,pywws,2013-03-05 15:52:00,
2013-03-05 16:02:00,47.5,33.9,29.66,North,-999,0.0,2.2,59,0.00,,,0.00,pywws,2013-03-05 16:02:00,
2013-03-05 16:07:00,46.6,33.4,29.67,SW,225,0.7,1.6,60,0.00,,,0.00,pywws,2013-03-05 16:07:00,
2013-03-05 16:12:00,46.6,33.9,29.67,SW,225,0.7,3.1,61,0.00,,,0.00,pywws,2013-03-05 16:12:00,
2013-03-05 16:17:00,46.2,33.5,29.66,East,90,0.7,1.6,61,0.00,,,0.00,pywws,2013-03-05 16:17:00,
2013-03-05 16:22:00,46.0,33.8,29.67,South,180,0.7,1.6,62,0.00,,,0.00,pywws,2013-03-05 16:22:00,
2013-03-05 16:27:00,45.9,34.0,29.67,North,-999,0.0,0.7,63,0.00,,,0.00,pywws,2013-03-05 16:27:00,
2013-03-05 16:32:00,45.7,33.8,29.67,East,90,0.7,1.6,63,0.00,,,0.00,pywws,2013-03-05 16:32:00,
2013-03-05 16:37:00,45.5,34.0,29.66,South,180,0.7,1.6,64,0.00,,,0.00,pywws,2013-03-05 16:37:00,
2013-03-05 16:42:00,45.1,34.1,29.66,North,-999,0.0,2.2,65,0.00,,,0.00,pywws,2013-03-05 16:42:00,
2013-03-05 16:47:00,45.0,33.9,29.67,North,-999,0.0,1.6,65,0.00,,,0.00,pywws,2013-03-05 16:47:00,
2013-03-05 16:52:00,44.6,33.2,29.67,North,0,1.6,2.2,64,0.00,,,0.00,pywws,2013-03-05 16:52:00,
2013-03-05 17:02:00,44.2,34.0,29.67,South,180,1.6,3.8,67,0.00,,,0.00,pywws,2013-03-05 17:02:00,
2013-03-05 17:07:00,43.2,35.1,29.67,North,0,0.7,2.2,73,0.00,,,0.00,pywws,2013-03-05 17:07:00,
2013-03-05 17:12:00,42.8,35.1,29.67,North,-999,0.0,1.6,74,0.00,,,0.00,pywws,2013-03-05 17:12:00,
2013-03-05 17:17:00,42.4,35.1,29.67,North,-999,0.0,1.6,75,0.00,,,0.00,pywws,2013-03-05 17:17:00,
2013-03-05 17:22:00,42.1,35.4,29.67,East,90,0.7,2.2,77,0.00,,,0.00,pywws,2013-03-05 17:22:00,
2013-03-05 17:27:00,41.9,35.9,29.68,SW,225,0.7,2.2,79,0.00,,,0.00,pywws,2013-03-05 17:27:00,
2013-03-05 17:32:00,41.7,36.3,29.67,SW,225,2.2,5.4,81,0.00,,,0.00,pywws,2013-03-05 17:32:00,
2013-03-05 17:37:00,41.7,36.6,29.68,West,270,0.7,2.2,82,0.00,,,0.00,pywws,2013-03-05 17:37:00,
2013-03-05 17:42:00,41.7,36.9,29.68,NE,45,1.6,3.1,83,0.00,,,0.00,pywws,2013-03-05 17:42:00,
2013-03-05 17:47:00,41.5,37.1,29.68,SW,225,3.1,5.4,84,0.00,,,0.00,pywws,2013-03-05 17:47:00,
2013-03-05 17:52:00,41.4,36.9,29.68,SE,135,2.2,6.0,84,0.00,,,0.00,pywws,2013-03-05 17:52:00,
2013-03-05 18:02:00,41.4,37.2,29.68,SW,225,1.6,4.5,85,0.00,,,0.00,pywws,2013-03-05 18:02:00,
2013-03-05 18:07:00,40.8,36.4,29.68,North,-999,0.0,3.1,84,0.00,,,0.00,pywws,2013-03-05 18:07:00,
2013-03-05 18:12:00,40.6,36.5,29.69,North,-999,0.0,0.7,85,0.00,,,0.00,pywws,2013-03-05 18:12:00,
2013-03-05 18:17:00,40.3,36.1,29.69,North,-999,0.0,0.7,85,0.00,,,0.00,pywws,2013-03-05 18:17:00,
2013-03-05 18:22:00,39.9,35.5,29.68,North,-999,0.0,1.6,84,0.00,,,0.00,pywws,2013-03-05 18:22:00,
2013-03-05 18:27:00,39.6,35.1,29.69,North,-999,0.0,0.0,84,0.00,,,0.00,pywws,2013-03-05 18:27:00,
2013-03-05 18:32:00,39.2,34.8,29.69,North,-999,0.0,0.7,84,0.00,,,0.00,pywws,2013-03-05 18:32:00,
2013-03-05 18:37:00,38.7,34.3,29.69,North,-999,0.0,0.0,84,0.00,,,0.00,pywws,2013-03-05 18:37:00,
2013-03-05 18:42:00,38.1,33.7,29.69,North,-999,0.0,0.0,84,0.00,,,0.00,pywws,2013-03-05 18:42:00,
2013-03-05 18:47:00,37.6,33.5,29.68,North,-999,0.0,0.0,85,0.00,,,0.00,pywws,2013-03-05 18:47:00,
2013-03-05 18:52:00,37.0,33.0,29.69,North,-999,0.0,0.0,85,0.00,,,0.00,pywws,2013-03-05 18:52:00,
2013-03-05 19:02:00,36.7,32.6,29.69,North,-999,0.0,0.0,85,0.00,,,0.00,pywws,2013-03-05 19:02:00,
2013-03-05 19:07:00,35.8,32.0,29.70,North,-999,0.0,0.0,86,0.00,,,0.00,pywws,2013-03-05 19:07:00,
2013-03-05 19:12:00,35.2,31.8,29.69,North,-999,0.0,0.0,87,0.00,,,0.00,pywws,2013-03-05 19:12:00,
2013-03-05 19:17:00,35.1,31.9,29.70,North,-999,0.0,0.0,88,0.00,,,0.00,pywws,2013-03-05 19:17:00,
2013-03-05 19:22:00,34.7,31.5,29.69,North,-999,0.0,0.0,88,0.00,,,0.00,pywws,2013-03-05 19:22:00,
2013-03-05 19:27:00,34.5,31.3,29.69,North,-999,0.0,0.0,88,0.00,,,0.00,pywws,2013-03-05 19:27:00,
2013-03-05 19:32:00,34.2,31.0,29.70,North,-999,0.0,0.0,88,0.00,,,0.00,pywws,2013-03-05 19:32:00,
2013-03-05 19:37:00,33.8,30.9,29.70,North,-999,0.0,0.0,89,0.00,,,0.00,pywws,2013-03-05 19:37:00,
2013-03-05 19:42:00,33.6,30.7,29.69,North,-999,0.0,0.0,89,0.00,,,0.00,pywws,2013-03-05 19:42:00,
2013-03-05 19:47:00,33.4,30.8,29.69,North,-999,0.0,0.0,90,0.00,,,0.00,pywws,2013-03-05 19:47:00,
2013-03-05 19:52:00,33.3,30.7,29.69,North,-999,0.0,0.0,90,0.00,,,0.00,pywws,2013-03-05 19:52:00,
2013-03-05 20:02:00,33.1,30.7,29.70,North,-999,0.0,0.0,91,0.00,,,0.00,pywws,2013-03-05 20:02:00,
2013-03-05 20:07:00,32.5,30.2,29.69,North,-999,0.0,0.0,91,0.00,,,0.00,pywws,2013-03-05 20:07:00,
2013-03-05 20:12:00,32.4,30.0,29.69,North,-999,0.0,0.0,91,0.00,,,0.00,pywws,2013-03-05 20:12:00,
2013-03-05 20:17:00,32.5,30.5,29.69,North,-999,0.0,0.0,92,0.00,,,0.00,pywws,2013-03-05 20:17:00,
2013-03-05 20:22:00,32.4,30.3,29.69,North,-999,0.0,0.0,92,0.00,,,0.00,pywws,2013-03-05 20:22:00,
2013-03-05 20:27:00,32.2,30.1,29.69,North,-999,0.0,0.0,92,0.00,,,0.00,pywws,2013-03-05 20:27:00,
2013-03-05 20:32:00,32.0,29.9,29.70,North,-999,0.0,0.0,92,0.00,,,0.00,pywws,2013-03-05 20:32:00,
2013-03-05 20:37:00,31.8,30.0,29.70,North,-999,0.0,0.0,93,0.00,,,0.00,pywws,2013-03-05 20:37:00,
2013-03-05 20:42:00,31.8,30.0,29.70,North,-999,0.0,0.0,93,0.00,,,0.00,pywws,2013-03-05 20:42:00,
2013-03-05 20:47:00,31.8,30.3,29.70,North,-999,0.0,0.0,94,0.00,,,0.00,pywws,2013-03-05 20:47:00,
2013-03-05 20:52:00,31.6,30.1,29.70,North,-999,0.0,0.0,94,0.00,,,0.00,pywws,2013-03-05 20:52:00,
2013-03-05 21:02:00,31.5,29.9,29.70,North,-999,0.0,0.0,94,0.00,,,0.00,pywws,2013-03-05 21:02:00,
2013-03-05 21:07:00,30.9,29.4,29.71,North,-999,0.0,0.0,94,0.00,,,0.00,pywws,2013-03-05 21:07:00,
2013-03-05 21:12:00,30.9,29.7,29.71,North,-999,0.0,0.0,95,0.00,,,0.00,pywws,2013-03-05 21:12:00,
2013-03-05 21:17:00,30.7,29.5,29.71,North,-999,0.0,0.0,95,0.00,,,0.00,pywws,2013-03-05 21:17:00,
2013-03-05 21:22:00,30.6,29.3,29.71,North,-999,0.0,0.0,95,0.00,,,0.00,pywws,2013-03-05 21:22:00,
2013-03-05 21:27:00,30.7,29.5,29.72,North,-999,0.0,0.0,95,0.00,,,0.00,pywws,2013-03-05 21:27:00,
2013-03-05 21:32:00,30.7,29.7,29.71,North,-999,0.0,0.0,96,0.00,,,0.00,pywws,2013-03-05 21:32:00,
2013-03-05 21:37:00,30.7,29.7,29.72,North,-999,0.0,0.0,96,0.00,,,0.00,pywws,2013-03-05 21:37:00,
2013-03-05 21:42:00,30.6,29.6,29.72,North,-999,0.0,0.0,96,0.00,,,0.00,pywws,2013-03-05 21:42:00,
2013-03-05 21:47:00,30.9,29.9,29.72,North,-999,0.0,0.0,96,0.00,,,0.00,pywws,2013-03-05 21:47:00,
2013-03-05 21:52:00,31.3,30.5,29.72,North,-999,0.0,0.0,97,0.00,,,0.00,pywws,2013-03-05 21:52:00,
2013-03-05 22:02:00,31.1,30.3,29.72,North,-999,0.0,0.0,97,0.00,,,0.00,pywws,2013-03-05 22:02:00,
2013-03-05 22:07:00,31.1,30.3,29.72,North,-999,0.0,0.0,97,0.00,,,0.00,pywws,2013-03-05 22:07:00,
2013-03-05 22:12:00,31.3,30.5,29.72,North,-999,0.0,0.0,97,0.00,,,0.00,pywws,2013-03-05 22:12:00,
2013-03-05 22:17:00,31.3,30.8,29.72,North,-999,0.0,0.0,98,0.00,,,0.00,pywws,2013-03-05 22:17:00,
2013-03-05 22:22:00,31.5,31.0,29.72,North,-999,0.0,0.0,98,0.00,,,0.00,pywws,2013-03-05 22:22:00,
2013-03-05 22:27:00,31.6,31.1,29.72,North,-999,0.0,0.0,98,0.00,,,0.00,pywws,2013-03-05 22:27:00,
2013-03-05 22:32:00,31.8,31.3,29.72,North,-999,0.0,0.0,98,0.00,,,0.00,pywws,2013-03-05 22:32:00,
2013-03-05 22:37:00,32.2,31.9,29.72,North,-999,0.0,0.0,99,0.00,,,0.00,pywws,2013-03-05 22:37:00,
2013-03-05 22:42:00,32.5,32.3,29.73,North,-999,0.0,0.0,99,0.00,,,0.00,pywws,2013-03-05 22:42:00,
2013-03-05 22:47:00,33.1,32.8,29.72,North,-999,0.0,0.0,99,0.00,,,0.00,pywws,2013-03-05 22:47:00,
2013-03-05 22:52:00,33.4,33.2,29.72,North,-999,0.0,0.0,99,0.00,,,0.00,pywws,2013-03-05 22:52:00,
2013-03-05 23:02:00,34.0,33.7,29.72,North,-999,0.0,0.7,99,0.00,,,0.00,pywws,2013-03-05 23:02:00,
2013-03-05 23:07:00,34.7,34.4,29.72,North,-999,0.0,0.0,99,0.00,,,0.00,pywws,2013-03-05 23:07:00,
2013-03-05 23:12:00,35.1,34.8,29.72,North,-999,0.0,0.7,99,0.00,,,0.00,pywws,2013-03-05 23:12:00,
2013-03-05 23:17:00,35.2,35.0,29.72,North,-999,0.0,0.7,99,0.00,,,0.00,pywws,2013-03-05 23:17:00,
2013-03-05 23:22:00,35.4,35.2,29.72,North,-999,0.0,0.0,99,0.00,,,0.00,pywws,2013-03-05 23:22:00,
2013-03-05 23:27:00,35.4,35.2,29.72,North,-999,0.0,0.0,99,0.00,,,0.00,pywws,2013-03-05 23:27:00,
2013-03-05 23:32:00,35.6,35.3,29.72,North,-999,0.0,0.0,99,0.00,,,0.00,pywws,2013-03-05 23:32:00,
2013-03-05 23:37:00,35.6,35.3,29.72,North,-999,0.0,0.7,99,0.00,,,0.00,pywws,2013-03-05 23:37:00,
2013-03-05 23:42:00,35.8,35.5,29.72,North,-999,0.0,0.7,99,0.00,,,0.00,pywws,2013-03-05 23:42:00,
2013-03-05 23:47:00,35.8,35.5,29.72,North,-999,0.0,1.6,99,0.00,,,0.00,pywws,2013-03-05 23:47:00,
2013-03-05 23:52:00,36.0,35.7,29.72,North,-999,0.0,0.0,99,0.00,,,0.00,pywws,2013-03-05 23:52:00,